Wetbulb
58.91 54.96 52.96 55.02 56.44 55.43 54.95 52.35 51.53 54.59 56.94 56.75 55.62 56.11 59.33 62.27 63.26 64.49 59.17 60.54 65.57 65.77 67.98 69.22 69.20 69.52 68.97 70.04 70.21 70.04 69.74 68.56 69.30 67.78 66.84 65.98 64.66 64.68 67.33 69.40 64.90 65.25 64.79 64.64
56.12 53.19 57.35 57.20 57.43 55.80 54.41 51.89 51.56 54.73 55.83 55.38 55.49 56.11 59.29 59.67 57.59 58.13 57.92 56.17 64.13 65.19 66.92 67.56 68.71 69.00 68.27 68.94 67.86 69.28 66.88 70.16 69.09 68.40 68.52 67.41 66.69 66.55 66.20 65.71 66.35 65.27 64.92 63.76
54.18 55.26 58.50 56.57 54.84 53.87 53.89 52.43 52.53 52.26 54.10 54.84 55.21 54.65 56.27 57.10 56.77 56.76 56.22 59.51 60.28 65.31 66.07 66.04 66.93 67.86 67.80 66.58 65.92 67.29 67.02 68.60 68.76 66.65 65.76 66.14 64.75 66.18 65.22 64.35 64.49 63.80 63.68 63.61
55.69 58.30 56.62 55.64 53.44 54.83 51.62 55.45 54.40 53.27 51.55 47.77 55.36 46.61 52.60 55.15 56.13 57.08 57.39 58.42 59.50 63.81 65.79 64.62 66.85 67.00 65.09 64.67 65.53 67.26 67.45 62.55 59.74 61.69 64.55 63.22 61.60 60.15 61.62 63.62 64.35 63.05 63.96 64.32
53.90 54.85 55.43 53.71 54.18 55.96 53.13 55.91 53.84 53.61 52.45 52.17 51.80 48.03 53.15 55.86 52.76 55.84 58.46 59.25 60.20 64.81 65.10 65.12 66.12 66.84 64.32 65.63 64.08 65.07 62.43 61.24 61.39 59.98 62.19 61.17 63.29 64.31 62.64 63.93 65.01 65.60 65.39 66.42
54.94 57.54 56.42 55.99 56.98 56.68 56.59 54.13 53.63 54.09 51.95 45.47 49.54 48.57 49.74 50.89 53.06 57.16 58.16 59.36 61.75 63.01 66.24 65.15 67.21 67.31 63.70 62.05 63.06 63.88 63.11 64.27 63.53 65.70 67.17 62.91 62.59 64.42 63.16 63.75 63.31 61.20 61.12 61.24
53.43 53.79 56.28 56.83 54.05 56.15 55.23 52.48 45.93 44.18 43.87 40.45 50.29 48.35 50.11 55.43 56.61 57.24 57.63 58.87 61.58 62.86 61.88 65.09 65.37 66.66 65.91 62.92 64.29 64.80 62.69 62.52 60.65 62.20 61.73 62.70 62.89 61.65 63.71 63.60 63.42 60.94 59.44 60.59
48.99 47.57 54.11 56.70 54.88 53.21 52.87 52.42 46.50 40.83 40.32 41.13 50.18 45.82 49.51 56.76 58.51 58.87 59.78 60.85 61.22 62.07 59.41 60.00 62.08 62.15 61.74 61.67 62.18 61.85 60.65 59.77 57.91 61.20 61.83 63.62 64.18 63.42 62.51 62.17 61.79 61.56 60.28 59.11
51.28 50.02 56.11 56.81 57.12 55.96 53.16 50.71 55.24 49.41 49.48 45.32 48.07 50.47 54.42 56.16 57.61 58.22 58.35 60.33 60.97 59.56 58.00 59.66 60.39 60.26 60.37 61.21 60.73 60.35 59.33 59.97 61.12 60.31 62.04 64.35 63.52 63.19 61.23 60.93 60.52 59.34 58.34 57.57
55.60 50.40 55.97 55.93 57.71 57.07 55.33 56.15 49.10 49.74 40.47 39.43 45.66 46.84 47.04 53.17 54.93 57.10 57.47 58.92 60.59 61.99 60.64 60.44 61.48 61.27 60.81 60.74 60.23 61.05 61.94 62.13 62.47 63.59 61.85 61.85 61.42 58.58 58.96 58.98 59.00 58.59 58.12 57.82
57.24 54.83 53.48 55.25 53.37 52.23 51.86 49.91 51.04 51.48 47.42 42.28 42.42 45.89 54.85 54.71 55.97 56.14 56.85 58.67 59.55 60.06 60.62 61.16 61.02 59.83 59.46 59.66 59.29 60.72 60.38 60.48 61.13 60.39 60.56 58.60 58.42 57.70 57.18 56.43 56.45 56.36 56.63 56.46
57.30 54.43 49.88 52.04 56.04 56.65 54.78 51.00 47.88 47.02 46.41 49.63 48.42 44.17 56.53 56.26 56.65 56.79 55.92 57.60 58.86 59.43 59.43 59.00 58.59 59.17 58.50 57.85 58.11 59.00 60.51 59.43 59.22 58.69 58.07 57.47 57.44 56.55 55.91 56.18 54.70 53.67 52.71 53.06
59.45 51.01 46.33 48.43 53.42 54.70 50.09 52.01 53.10 53.01 55.08 48.78 45.21 47.01 56.21 56.28 55.77 56.20 55.58 56.45 57.49 57.83 57.85 57.82 57.85 57.62 57.53 57.70 58.55 58.37 58.87 57.51 57.00 56.58 55.54 56.14 56.20 56.38 55.67 54.55 54.78 54.89 53.72 52.42
61.32 56.48 49.96 41.08 47.11 52.70 50.28 53.19 54.44 54.34 48.57 49.11 47.24 49.23 51.39 53.92 52.84 54.29 55.24 56.05 56.66 56.98 57.26 57.43 57.29 56.41 57.72 59.07 58.44 57.45 57.01 56.73 56.19 55.55 54.98 55.22 55.76 56.58 56.00 55.04 54.11 53.32 53.09 51.99
59.82 52.92 54.08 54.52 54.59 54.30 53.50 52.70 52.43 50.79 51.59 48.59 49.82 48.74 50.98 53.17 52.45 52.79 54.01 54.43 54.89 54.93 54.90 55.22 55.58 55.84 56.03 57.36 57.27 56.71 56.50 55.73 56.32 55.05 54.52 54.83 57.05 55.60 55.07 54.46 53.26 52.95 52.21 51.96
58.96 53.31 54.86 51.56 53.84 52.80 50.92 53.50 52.56 52.30 52.63 51.90 51.27 50.76 54.96 54.47 54.10 52.73 52.85 53.10 53.18 53.84 54.33 54.60 54.89 55.05 55.81 56.22 55.53 55.22 55.41 55.67 55.71 54.60 54.12 55.25 56.17 54.77 53.33 52.77 51.49 52.41 51.84 51.78
56.74 56.35 48.90 44.12 53.27 51.60 48.13 52.02 52.66 53.45 54.18 52.50 48.74 51.96 53.48 52.33 51.83 51.97 52.55 52.98 52.84 53.58 53.98 54.35 55.11 55.67 56.48 55.44 56.94 55.65 54.98 56.16 55.60 55.42 55.03 54.78 55.03 53.43 53.34 52.54 52.26 51.23 50.99 51.28
57.18 55.86 54.11 49.67 50.62 42.82 51.98 57.86 56.17 53.43 54.27 54.42 54.04 53.71 52.56 52.17 52.84 53.06 54.75 54.28 53.63 54.00 54.81 55.42 55.63 55.83 57.39 56.28 56.07 56.68 55.54 55.75 55.60 55.44 55.52 54.90 54.25 53.06 52.79 52.49 51.28 51.22 51.65 51.78
53.37 56.09 51.88 48.26 45.19 48.40 52.53 53.07 54.28 52.05 51.36 56.52 54.48 54.53 52.96 53.07 53.02 53.92 56.46 56.00 55.16 55.41 56.03 56.40 56.47 56.52 57.92 56.29 57.18 55.86 55.55 55.53 55.20 55.27 54.55 54.92 53.64 52.76 52.33 51.55 51.66 52.01 52.07 52.79
54.57 56.95 54.49 47.35 45.11 42.35 52.25 55.59 58.76 56.54 48.08 56.50 55.37 53.09 52.74 52.73 47.81 51.56 55.61 55.59 55.49 56.35 56.52 56.88 56.38 56.67 58.22 58.25 58.56 56.96 55.53 55.41 54.92 55.00 54.95 54.44 54.47 53.60 52.95 53.43 52.45 53.06 53.73 52.70
47.58 48.75 48.00 46.19 46.74 49.92 56.17 57.81 57.74 46.85 50.12 56.46 55.28 54.53 53.47 51.58 53.36 55.66 55.61 55.04 55.87 56.13 56.16 56.72 56.76 56.91 58.23 58.53 58.36 56.38 55.78 55.12 56.35 56.81 55.74 55.52 55.62 54.37 55.40 54.54 53.91 53.74 53.38 54.19
45.86 44.00 46.48 49.46 45.58 42.40 58.18 56.85 52.99 56.71 58.44 56.65 56.11 55.97 54.64 54.93 55.06 55.18 55.01 54.46 55.24 55.38 56.38 56.60 56.30 57.60 58.89 58.49 57.57 56.20 56.06 58.07 57.11 57.60 55.87 55.98 56.71 54.54 53.03 54.19 54.20 55.12 54.87 53.66
50.49 50.29 51.03 52.99 52.73 59.41 59.05 58.45 59.54 59.01 56.77 56.95 56.75 56.45 55.93 54.91 54.70 55.16 54.30 54.84 56.21 56.41 57.71 57.61 56.82 57.02 58.66 58.46 58.44 56.62 58.00 58.07 57.30 57.44 56.58 56.14 56.59 55.69 55.94 54.08 52.79 53.73 54.40 51.99
53.41 55.93 54.70 56.22 57.00 57.74 57.93 58.15 57.53 57.11 56.14 56.81 57.32 56.32 55.67 54.52 54.44 54.50 54.77 56.24 57.59 57.45 57.31 58.26 57.85 57.81 57.84 58.75 57.92 58.20 58.08 58.21 57.57 56.99 56.70 55.68 55.01 55.83 55.76 53.95 53.22 53.94 52.57 50.80
55.31 58.09 55.31 55.28 56.52 56.52 57.09 57.30 56.76 55.91 56.16 55.96 56.37 56.08 55.23 54.78 54.54 55.21 55.89 58.06 58.40 58.64 58.74 59.40 58.95 58.86 58.67 59.10 58.38 58.57 58.10 59.00 57.28 57.70 56.64 55.12 55.35 55.36 54.69 54.93 55.56 54.39 56.61 51.82
57.68 56.52 53.25 52.33 57.32 56.56 56.67 57.09 57.07 55.53 55.24 56.00 55.85 55.84 56.76 56.71 56.35 56.98 57.22 57.91 58.47 58.69 59.54 59.12 59.50 59.18 59.18 58.95 58.41 58.10 58.50 58.30 57.92 57.05 54.63 54.63 54.47 54.54 53.05 54.35 54.45 46.22 45.81 43.57
MSLP
1004.47 1004.45 1004.13 1004.82 1006.19 1006.52 1004.92 1003.46 1002.62 1002.07 1002.42 1002.74 1003.62 1002.49 1002.95 1004.08 1005.62 1005.49 1006.32 1006.24 1005.16 1005.25 1005.37 1006.36 1007.43 1008.51 1009.59 1010.82 1012.06 1013.07 1013.52 1013.73 1013.93 1014.14 1014.84 1015.17 1014.92 1014.87 1015.01 1014.60 1015.12 1015.39 1015.50 1015.57
1004.30 1004.43 1004.34 1005.40 1005.67 1005.59 1004.54 1003.28 1002.51 1002.16 1001.99 1002.10 1002.33 1002.71 1003.91 1005.79 1007.98 1009.33 1009.91 1009.07 1005.90 1004.92 1005.13 1005.97 1007.00 1007.77 1009.05 1010.89 1012.33 1013.10 1013.74 1013.70 1013.55 1013.94 1014.26 1014.96 1014.80 1014.70 1014.41 1014.21 1014.50 1014.84 1015.07 1015.12
1003.92 1004.65 1005.53 1004.87 1005.18 1004.80 1003.91 1003.31 1002.62 1002.55 1002.13 1002.14 1002.45 1003.70 1006.03 1007.84 1008.43 1008.79 1009.50 1011.06 1006.47 1006.45 1006.08 1006.13 1006.99 1008.75 1009.06 1010.60 1011.89 1013.15 1013.40 1013.68 1014.95 1013.92 1014.61 1014.90 1014.88 1015.13 1014.56 1014.25 1014.31 1014.63 1014.78 1014.66
1004.07 1005.36 1004.92 1004.54 1005.06 1005.63 1004.33 1003.34 1003.26 1003.30 1002.76 1002.87 1004.37 1005.97 1008.50 1009.54 1010.01 1009.01 1010.75 1010.69 1007.81 1008.39 1008.83 1007.60 1007.56 1008.79 1010.54 1012.89 1013.33 1013.46 1013.84 1014.53 1015.74 1014.51 1015.40 1015.92 1015.10 1014.77 1013.94 1013.60 1013.83 1014.19 1013.97 1013.94
1003.81 1004.48 1004.03 1004.12 1003.90 1003.94 1003.95 1003.51 1003.31 1003.44 1003.82 1004.80 1005.86 1007.69 1008.98 1009.09 1010.74 1009.68 1009.24 1008.71 1008.21 1006.81 1006.48 1007.57 1008.60 1009.57 1011.25 1012.48 1013.01 1013.73 1014.56 1015.25 1015.39 1015.56 1016.35 1014.99 1014.76 1014.51 1014.27 1014.01 1014.21 1014.17 1013.98 1013.94
1002.46 1002.41 1002.45 1002.26 1002.60 1003.02 1003.09 1002.96 1003.44 1004.36 1005.40 1006.67 1007.92 1009.71 1009.11 1009.48 1009.38 1008.18 1007.24 1006.74 1006.83 1006.84 1007.55 1008.42 1009.02 1010.30 1011.80 1012.65 1013.31 1014.29 1014.90 1015.55 1015.63 1014.95 1014.81 1014.62 1014.45 1014.68 1014.81 1014.47 1014.44 1014.58 1014.57 1015.63
1002.23 1002.02 1001.88 1002.03 1002.31 1002.73 1002.82 1002.82 1003.97 1005.41 1006.92 1009.53 1008.57 1009.49 1010.28 1009.17 1007.83 1007.05 1006.69 1006.85 1007.04 1007.47 1009.00 1010.30 1010.11 1010.82 1012.11 1013.18 1014.39 1014.68 1014.92 1015.48 1015.75 1014.59 1014.52 1014.44 1014.33 1014.63 1014.61 1014.56 1014.65 1015.01 1014.78 1014.59
1002.13 1001.99 1002.43 1003.41 1004.27 1003.17 1003.26 1004.01 1004.74 1005.55 1007.65 1008.04 1008.01 1008.88 1009.76 1008.98 1007.26 1006.29 1006.15 1006.76 1007.74 1008.68 1009.83 1012.18 1012.56 1011.55 1013.55 1013.90 1014.00 1014.51 1014.93 1014.94 1014.94 1014.82 1015.02 1014.74 1014.50 1014.16 1014.19 1014.57 1014.72 1015.01 1015.04 1015.04
1003.17 1002.32 1002.75 1003.89 1003.50 1003.63 1003.94 1005.05 1004.31 1006.31 1007.60 1008.38 1008.97 1009.18 1009.14 1008.70 1007.58 1006.67 1006.31 1006.69 1008.11 1009.44 1011.76 1013.17 1012.27 1013.06 1013.43 1013.54 1013.96 1014.25 1014.61 1014.41 1014.34 1014.41 1014.35 1014.12 1014.17 1014.26 1014.80 1014.86 1014.89 1014.98 1015.11 1015.03
1004.02 1003.47 1003.46 1004.07 1003.86 1004.23 1006.26 1006.31 1006.51 1007.17 1008.49 1008.98 1008.88 1009.06 1009.14 1008.23 1007.48 1007.36 1006.79 1006.95 1007.57 1009.31 1011.55 1011.97 1012.22 1012.86 1013.14 1013.31 1013.57 1013.76 1013.81 1013.80 1013.66 1013.85 1014.03 1014.09 1014.33 1014.60 1014.91 1014.97 1015.07 1015.17 1015.21 1015.02
1004.88 1004.82 1004.60 1004.87 1005.96 1005.84 1006.56 1007.10 1009.47 1009.42 1009.77 1009.41 1008.63 1009.61 1009.49 1008.53 1008.08 1008.02 1007.55 1007.81 1008.34 1009.66 1010.55 1011.15 1011.60 1012.44 1012.68 1012.75 1012.69 1013.16 1013.31 1013.38 1013.46 1014.03 1014.33 1014.58 1014.84 1015.04 1015.34 1015.53 1015.56 1015.46 1015.25 1014.90
1006.47 1006.41 1005.80 1005.41 1007.19 1006.99 1007.50 1007.70 1008.72 1010.20 1007.91 1007.32 1007.97 1011.15 1010.68 1009.39 1008.53 1008.70 1008.42 1008.78 1009.16 1009.42 1010.19 1010.79 1011.55 1012.08 1012.38 1012.32 1012.51 1012.83 1013.27 1013.66 1013.89 1014.30 1014.71 1014.97 1015.26 1015.54 1015.74 1015.86 1015.99 1015.73 1015.39 1015.01
1006.75 1007.41 1007.43 1006.77 1007.03 1007.14 1008.31 1007.54 1006.93 1007.00 1006.60 1006.99 1008.53 1010.31 1011.16 1009.91 1009.12 1009.11 1009.18 1009.29 1009.77 1010.35 1010.69 1011.18 1011.33 1011.76 1012.33 1012.58 1012.89 1013.37 1013.83 1014.26 1014.56 1015.00 1015.23 1015.44 1015.69 1015.70 1015.92 1015.85 1015.53 1015.36 1015.15 1014.78
1007.87 1007.15 1007.46 1007.28 1007.08 1006.55 1006.83 1006.07 1005.34 1005.51 1005.50 1006.32 1008.35 1009.71 1010.18 1009.54 1009.38 1009.28 1009.47 1009.67 1009.75 1010.35 1010.99 1011.35 1011.38 1011.79 1012.41 1012.97 1013.53 1014.06 1014.42 1014.80 1015.12 1015.42 1015.54 1015.58 1015.45 1015.51 1015.68 1015.56 1015.39 1015.22 1015.00 1014.64
1008.84 1007.68 1007.04 1006.08 1005.25 1005.36 1005.00 1004.29 1004.18 1004.35 1005.09 1005.67 1006.80 1008.44 1009.18 1009.25 1009.36 1009.48 1009.73 1009.88 1010.08 1010.65 1011.11 1011.36 1011.83 1012.30 1012.67 1013.32 1013.82 1014.25 1014.71 1015.12 1015.36 1015.46 1015.41 1015.17 1014.97 1015.24 1015.24 1015.21 1015.15 1014.94 1014.56 1014.15
1008.91 1008.15 1007.50 1007.05 1006.08 1005.98 1005.58 1004.54 1003.90 1004.15 1004.99 1005.51 1006.18 1007.43 1008.23 1008.69 1009.09 1009.53 1009.88 1010.19 1010.36 1010.76 1011.29 1011.81 1012.22 1012.63 1013.10 1013.76 1014.26 1014.68 1015.06 1015.22 1015.28 1015.23 1014.97 1014.62 1014.67 1014.85 1015.32 1015.22 1014.98 1014.56 1014.17 1013.78
1008.38 1007.24 1008.42 1008.47 1006.97 1006.29 1006.19 1004.95 1004.15 1004.03 1004.47 1005.50 1006.32 1007.52 1007.97 1008.55 1009.15 1009.66 1010.01 1010.27 1010.64 1011.10 1011.56 1012.01 1012.43 1012.92 1013.49 1013.95 1014.33 1014.82 1015.16 1015.11 1014.99 1014.75 1014.46 1014.24 1014.35 1014.82 1014.87 1014.77 1014.43 1014.30 1014.08 1013.57
1008.19 1007.40 1006.56 1007.13 1007.36 1007.04 1006.88 1005.57 1004.74 1004.76 1005.00 1005.79 1006.51 1007.37 1007.93 1008.61 1009.06 1009.21 1009.77 1010.51 1011.08 1011.48 1011.93 1012.38 1012.78 1013.26 1013.73 1014.18 1014.42 1014.75 1014.93 1014.84 1014.55 1014.27 1014.02 1014.02 1014.23 1014.59 1014.53 1014.43 1014.44 1014.11 1013.71 1013.28
1009.69 1009.26 1007.74 1008.45 1009.09 1007.98 1007.00 1006.63 1005.75 1005.58 1005.61 1005.77 1006.67 1007.50 1008.07 1008.55 1008.86 1009.09 1010.06 1010.74 1011.33 1011.79 1012.23 1012.68 1013.10 1013.44 1013.75 1014.14 1014.44 1014.67 1014.80 1014.64 1014.29 1013.91 1013.87 1013.94 1014.36 1014.36 1014.12 1014.17 1014.07 1013.71 1013.49 1013.02
1010.79 1009.60 1008.37 1009.56 1009.03 1007.59 1006.02 1006.76 1005.82 1005.87 1005.97 1006.84 1007.50 1008.01 1008.37 1008.85 1008.87 1010.01 1010.74 1011.12 1011.51 1012.04 1012.59 1013.01 1013.23 1013.47 1013.77 1014.06 1014.31 1014.46 1014.45 1014.27 1013.99 1013.80 1013.66 1014.07 1014.28 1014.07 1013.91 1013.83 1013.66 1013.20 1012.90 1012.84
1011.04 1010.31 1009.33 1008.56 1008.56 1007.77 1006.10 1005.80 1005.76 1005.90 1007.70 1007.69 1007.93 1008.42 1008.56 1009.16 1009.72 1010.36 1010.85 1011.21 1011.82 1012.41 1012.76 1012.98 1013.14 1013.43 1013.56 1013.79 1013.96 1014.08 1014.05 1013.85 1013.56 1013.30 1013.31 1013.66 1013.96 1013.79 1013.46 1013.50 1013.23 1012.78 1012.49 1012.40
1012.22 1012.40 1011.06 1009.24 1009.07 1008.27 1006.65 1005.92 1006.20 1007.62 1007.81 1007.95 1008.18 1008.40 1008.68 1009.27 1009.84 1010.23 1010.69 1011.23 1011.74 1012.17 1012.48 1012.61 1012.72 1012.88 1013.05 1013.31 1013.46 1013.52 1013.47 1013.34 1013.25 1012.99 1013.10 1013.25 1013.37 1013.26 1013.06 1012.99 1012.71 1012.30 1012.22 1011.90
1011.45 1012.12 1010.97 1008.37 1008.39 1008.25 1007.31 1007.19 1007.61 1007.85 1008.00 1008.03 1008.29 1008.66 1009.03 1009.52 1010.00 1010.19 1010.58 1011.07 1011.44 1011.77 1011.82 1011.82 1012.03 1012.30 1012.56 1012.67 1012.76 1012.80 1012.81 1012.85 1012.76 1012.75 1012.90 1013.02 1012.81 1012.62 1012.65 1012.49 1012.13 1011.91 1011.87 1011.81
1010.24 1009.36 1008.86 1007.59 1007.50 1007.01 1007.11 1007.44 1007.54 1007.90 1008.03 1008.29 1008.42 1008.73 1009.20 1009.74 1010.08 1010.20 1010.54 1010.83 1011.02 1011.22 1011.26 1011.32 1011.46 1011.64 1011.85 1012.01 1012.16 1012.26 1012.27 1012.24 1012.38 1012.49 1012.63 1012.72 1012.41 1012.25 1012.20 1012.03 1011.68 1011.53 1011.70 1011.86
1008.15 1007.67 1006.98 1006.99 1006.92 1006.90 1007.41 1007.64 1007.98 1008.21 1008.16 1008.48 1008.61 1008.77 1009.23 1009.75 1010.02 1010.23 1010.40 1010.54 1010.64 1010.74 1010.79 1010.82 1010.97 1011.11 1011.37 1011.60 1011.55 1011.56 1011.66 1011.77 1011.96 1012.12 1012.33 1012.29 1011.94 1011.77 1011.57 1011.30 1011.17 1011.23 1011.18 1011.53
1006.22 1006.53 1006.62 1006.92 1007.27 1007.56 1007.77 1007.98 1008.16 1008.26 1008.36 1008.47 1008.65 1008.84 1008.99 1009.15 1009.38 1009.65 1009.91 1010.04 1010.13 1010.17 1010.28 1010.28 1010.37 1010.43 1010.63 1010.72 1010.85 1010.93 1011.07 1011.23 1011.41 1011.66 1011.87 1011.76 1011.71 1011.34 1011.05 1010.80 1010.73 1010.88 1011.02 1011.26
Wind_Speed
14 13 16 22 5 17 26 18 17 13 9 3 21 11 10 18 17 4 19 26 9 10 15 17 15 13 13 9 8 6 8 9 6 6 4 6 5 4 6 2 6 2 1 1
18 6 19 11 13 19 24 18 17 12 13 8 15 16 7 22 13 14 23 23 10 10 11 16 14 14 10 10 8 8 5 7 7 5 3 1 2 3 2 2 2 3 3 3
14 10 17 18 16 19 19 19 12 17 18 16 12 9 16 18 19 23 27 18 23 10 7 16 16 13 11 12 12 7 8 7 7 4 2 2 4 5 4 3 4 5 6 5
7 14 19 16 7 21 22 15 16 16 21 13 9 6 9 11 7 6 14 20 19 9 17 13 14 11 18 15 2 5 2 10 14 19 5 10 5 3 5 2 1 4 5 5
18 20 20 21 19 13 20 20 20 16 15 16 16 6 2 14 10 11 15 15 20 5 1 9 8 10 18 15 10 6 4 6 3 10 15 5 4 4 4 3 5 4 3 2
21 17 21 22 19 15 20 21 14 13 6 5 10 5 4 4 8 3 9 10 6 12 5 13 12 13 14 11 6 3 3 3 10 14 10 7 5 5 5 4 4 8 4 6
20 19 18 14 13 18 23 15 6 11 6 7 14 11 10 14 9 8 6 8 10 10 24 9 7 9 8 9 5 8 6 5 5 6 9 7 4 7 6 4 3 5 6 7
18 16 16 23 28 21 18 13 9 11 4 9 15 2 1 9 8 7 7 9 10 16 21 14 17 13 17 14 10 15 9 4 5 3 7 6 3 4 5 6 5 4 5 7
22 20 15 24 19 17 16 9 10 3 7 5 6 5 3 5 10 11 11 7 12 12 15 6 17 10 6 11 12 9 5 3 3 4 5 4 5 6 7 7 6 4 5 6
14 16 12 5 7 9 2 5 8 4 4 7 5 11 4 2 6 10 12 11 8 15 16 15 13 12 10 8 4 2 3 4 4 3 3 6 8 6 2 3 6 8 8 9
10 12 16 5 7 5 9 6 11 9 5 8 5 4 7 9 11 10 13 14 13 16 13 9 12 10 6 3 0 5 4 7 7 10 8 7 6 9 10 9 9 10 10 11
6 2 5 11 14 10 2 11 18 15 1 7 7 2 8 11 10 8 11 10 12 11 12 12 10 5 7 6 10 7 7 10 9 10 10 9 9 9 8 8 8 8 7 8
2 4 7 4 1 14 4 10 12 16 7 3 6 3 4 8 6 8 8 7 8 7 9 7 8 5 2 6 7 9 9 10 10 10 10 8 8 7 5 4 6 8 10 11
6 7 6 11 19 10 9 12 11 13 4 4 3 10 2 7 4 7 6 4 6 6 5 4 5 9 8 7 8 8 9 9 9 8 8 7 7 3 4 7 9 11 13 14
12 11 14 13 17 4 17 4 4 4 2 5 5 13 14 5 4 6 5 7 6 4 3 8 7 6 8 10 8 7 6 7 6 6 7 8 5 3 6 7 9 10 11 11
7 9 8 16 4 1 17 12 4 2 6 4 9 12 6 6 5 5 5 4 6 6 7 7 7 7 7 7 6 6 6 5 5 6 8 9 2 8 7 6 7 10 12 11
6 9 5 6 15 4 5 6 1 3 5 4 4 8 4 7 5 2 2 4 5 5 3 5 5 7 7 6 5 5 5 5 6 7 9 8 6 6 6 8 9 10 11 11
13 8 5 5 3 9 9 14 7 6 6 5 5 4 4 2 3 2 4 5 5 7 7 7 6 6 4 5 4 3 5 7 7 9 7 9 8 7 7 9 10 11 9 10
12 19 2 1 5 6 3 8 4 4 3 7 2 3 4 3 7 2 8 2 3 4 3 4 5 5 4 3 4 4 5 8 9 8 9 8 7 7 7 7 8 8 8 10
19 25 7 6 11 3 8 18 3 4 3 10 5 4 5 5 4 7 5 4 5 6 5 5 6 5 3 3 4 5 7 7 9 8 8 5 5 8 8 5 6 7 5 8
5 7 5 3 4 5 11 7 1 4 6 4 1 5 2 3 4 4 1 4 5 4 4 5 5 5 4 3 4 5 7 8 7 7 6 4 4 8 3 5 6 6 5 4
4 3 5 2 3 4 8 2 5 5 3 1 3 4 3 3 4 3 1 1 1 2 4 5 4 4 4 4 5 6 7 5 8 6 5 5 3 7 4 6 6 5 3 5
6 2 6 7 2 6 7 9 5 4 3 5 5 5 5 4 6 5 2 2 4 4 6 5 4 3 4 5 6 7 5 6 6 5 4 6 6 6 2 6 9 3 4 5
2 6 4 2 4 8 5 6 3 3 3 7 5 3 3 5 6 6 4 5 5 6 7 6 5 5 6 4 5 6 7 6 4 5 3 6 8 2 5 5 7 3 3 4
9 8 1 6 8 3 6 5 6 6 5 4 5 3 1 3 6 6 6 6 6 6 6 6 6 4 5 7 6 6 5 4 5 4 3 8 6 4 5 6 3 3 1 1
8 7 5 4 5 5 6 3 4 5 6 6 5 7 7 7 8 9 8 7 7 6 6 7 7 5 7 7 6 5 4 5 5 4 5 5 5 5 6 3 3 7 5 7
Wind_Direction
240 235 247 55 332 261 279 304 306 350 339 157 297 291 329 12 356 325 44 328 260 228 186 175 178 180 173 168 148 157 183 191 192 185 201 233 224 214 227 186 127 122 91 56
245 304 299 140 234 251 263 279 284 331 321 304 270 279 309 45 27 57 40 269 288 239 185 175 168 172 151 148 137 158 215 221 205 191 188 337 5 323 334 295 305 176 151 207
246 266 268 293 329 303 297 309 320 313 298 292 324 317 32 15 34 29 17 278 278 272 260 164 172 175 159 148 135 185 212 232 340 235 36 311 12 292 257 229 220 149 193 237
269 245 261 287 279 302 297 310 306 304 293 304 6 326 72 36 30 83 229 252 260 9 291 167 180 144 84 76 20 244 161 76 63 360 293 246 218 251 248 229 229 198 220 229
264 233 243 265 248 235 285 282 289 312 4 9 0 353 81 55 352 278 253 261 272 185 31 115 113 100 112 143 195 214 40 63 92 172 230 255 249 341 355 356 7 345 291 264
276 259 250 236 241 230 254 268 292 324 326 307 34 263 75 111 209 208 28 16 27 5 77 114 92 98 147 163 168 125 231 178 205 205 213 222 249 315 325 300 348 312 20 294
260 272 290 309 289 292 293 285 292 312 345 318 213 238 30 336 26 9 42 5 38 35 33 16 129 165 127 105 217 140 103 85 272 43 348 317 285 214 263 289 286 330 322 329
278 278 291 17 297 299 281 274 261 266 210 228 282 160 240 274 349 4 44 63 33 43 67 340 24 88 87 111 100 107 134 85 25 61 279 313 354 340 334 13 20 325 338 326
304 285 291 173 241 272 301 265 299 195 245 309 226 111 26 304 284 10 8 61 87 92 122 159 86 88 64 94 86 70 111 188 263 251 267 294 32 35 32 12 355 334 296 315
266 276 291 13 340 245 212 0 346 47 6 334 289 114 164 119 34 14 3 50 58 106 115 104 101 98 87 76 85 153 10 332 301 311 23 20 27 29 1 328 339 344 333 322
307 300 291 137 52 0 16 22 15 351 138 212 283 52 344 25 43 7 14 28 41 95 105 105 109 89 67 139 19 43 55 4 34 46 35 26 10 16 10 1 347 336 330 320
31 355 322 314 107 55 332 186 181 240 278 269 262 143 322 345 39 24 19 49 36 22 38 60 71 42 24 28 35 26 36 27 11 22 18 15 22 14 351 1 4 339 332 329
164 71 319 18 182 30 280 293 259 261 285 295 317 131 275 326 30 36 29 42 86 18 35 30 348 16 129 32 37 24 25 14 10 13 358 6 8 322 35 326 312 312 316 311
304 275 187 189 217 175 189 239 234 236 267 299 32 126 30 256 39 47 37 5 73 102 47 324 332 30 65 57 33 17 26 15 15 0 353 346 307 51 318 330 331 322 317 314
288 283 271 283 288 317 342 188 225 334 342 291 164 143 208 101 48 46 24 4 26 21 350 23 33 12 9 40 27 31 20 9 360 350 329 303 318 7 338 327 331 312 309 316
267 268 319 336 83 139 280 293 193 56 21 320 18 91 70 80 62 43 17 18 17 21 32 5 11 352 21 24 6 7 16 353 344 319 306 299 24 20 13 336 322 320 334 326
205 223 104 247 303 161 296 324 104 228 103 91 345 68 55 35 17 14 78 55 20 4 8 340 13 27 35 357 27 37 335 329 301 294 297 326 26 24 347 325 318 341 325 319
306 247 232 278 329 258 172 240 19 333 109 114 154 85 29 56 304 279 130 65 6 0 4 357 353 4 25 356 331 4 320 308 309 302 329 341 46 357 345 328 352 327 328 331
353 311 211 116 343 290 272 2 324 357 345 149 55 84 22 18 292 2 79 19 22 357 359 352 352 346 358 329 322 311 310 301 304 330 342 34 23 340 339 340 342 334 341 337
268 248 269 134 221 246 227 193 167 282 136 76 60 355 18 14 318 79 35 19 16 29 10 349 330 331 319 322 333 299 283 297 306 332 346 37 4 326 322 355 332 314 325 332
353 5 285 38 291 76 267 103 188 258 85 108 360 334 359 315 12 36 360 40 48 21 340 333 304 258 259 284 273 284 288 288 310 304 346 15 351 311 338 336 301 293 327 337
150 232 349 293 353 6 343 64 28 91 169 156 331 339 340 16 343 301 210 247 315 308 312 291 305 293 258 263 258 263 267 286 293 317 345 328 305 295 345 298 292 290 324 314
177 200 310 12 101 173 64 72 85 44 340 338 350 10 357 335 318 296 322 283 259 280 267 276 274 278 264 259 251 260 268 278 290 319 343 312 277 299 298 291 296 318 349 347
184 255 244 228 141 105 94 115 83 29 6 332 353 341 8 340 313 312 283 268 259 273 291 295 286 295 299 279 274 275 276 274 297 297 328 296 286 301 255 290 288 6 355 346
197 194 288 42 49 44 95 57 29 1 10 354 334 325 341 309 298 291 282 273 274 277 279 282 289 282 299 294 272 261 270 267 268 268 279 279 282 275 268 256 275 279 226 244
32 25 34 64 67 26 74 27 22 8 2 350 335 319 304 276 255 249 249 255 265 274 286 289 283 269 266 267 273 270 258 251 248 235 254 277 310 277 280 296 283 208 217 204